Emporia, KS

3:27 PM CDT on March 28, 2017 (GMT -0500)
Emporia Municipal

Weather History for KEMP - September, 2013

Change the Weather History Date:

Monday, September 9, 2013

  Actual Average Record
Temperature  
Mean Temperature 83 °F 72 °F  
Max Temperature 94 °F 84 °F 94 °F (2013)
Min Temperature 71 °F 59 °F 50 °F (1999)
Degree Days  
Heating Degree Days 0 0  
Month to date heating degree days 0 0  
Since 1 July heating degree days 2 1  
Cooling Degree Days 18 7  
Month to date cooling degree days 113 74  
Year to date cooling degree days 1242 1282  
Growing Degree Days 32 (Base 50)    
Moisture  
Dew Point 61 °F    
Average Humidity 48    
Maximum Humidity 68    
Minimum Humidity 28    
Precipitation  
Precipitation 0.00 in 0.13 in 1.47 in (2016)
Month to date precipitation T 1.44  
Year to date precipitation 24.09 28.05  
Sea Level Pressure  
Sea Level Pressure 29.89 in    
Wind  
Wind Speed 13 mph (South)    
Max Wind Speed 25 mph    
Max Gust Speed 31 mph    
Visibility 10 miles    
Events      
T = Trace of Precipitation, MM = Missing Value Source: NWS Daily Summary

Daily Weather History Graph

Daily Weather History Graph

Search for Another Location

Airport or City:

Trip Planner

Search our weather history database for the weather conditions in past years. The results will help you decide how hot, cold, wet, or windy it might be!

Date:

Astronomy

Sep. 09, 2013 Rise Set
Actual Time 7:01 AM CDT 7:41 PM CDT
Civil Twilight 6:34 AM CDT 8:08 PM CDT
Nautical Twilight 6:03 AM CDT 8:39 PM CDT
Astronomical Twilight 5:30 AM CDT 9:12 PM CDT
Moon 11:19 AM CDT (9/9) 10:03 PM CDT (9/9)
Length of Visible Light 13h 33m
Length of Day
12h 40m
Waxing Crescent, 19% of the Moon is Illuminated
Sep 9
Waxing Crescent
Sep 12
First Quarter
Sep 19
Full
Sep 26
Last Quarter
Oct 4
New

Hourly Weather History & Observations

Time (CDT) Temp. Heat Index Dew Point Humidity Pressure Visibility Wind Dir Wind Speed Gust Speed Precip Events Conditions
12:53 AM 79.0 °F - 62.1 °F 56% 29.86 in 10.0 mi South 10.4 mph - N/A   Clear
1:53 AM 75.0 °F - 63.0 °F 66% 29.86 in 10.0 mi South 9.2 mph - N/A   Clear
2:53 AM 73.0 °F - 63.0 °F 71% 29.86 in 10.0 mi South 9.2 mph - N/A   Clear
3:53 AM 73.0 °F - 63.0 °F 71% 29.87 in 10.0 mi South 10.4 mph - N/A   Clear
4:53 AM 72.0 °F - 61.0 °F 68% 29.87 in 10.0 mi South 8.1 mph - N/A   Clear
5:53 AM 75.0 °F - 60.1 °F 60% 29.88 in 10.0 mi SSW 8.1 mph - N/A   Clear
6:53 AM 75.0 °F - 60.1 °F 60% 29.89 in 10.0 mi SSW 10.4 mph - N/A   Clear
7:53 AM 73.9 °F - 61.0 °F 64% 29.90 in 8.0 mi SSW 10.4 mph - N/A   Clear
8:53 AM 79.0 °F - 62.1 °F 56% 29.91 in 10.0 mi SSW 10.4 mph - N/A   Clear
9:53 AM 84.9 °F 86.1 °F 64.0 °F 49% 29.92 in 10.0 mi SSW 12.7 mph - N/A   Clear
10:53 AM 88.0 °F 88.7 °F 63.0 °F 43% 29.93 in 10.0 mi SW 18.4 mph 24.2 mph N/A   Clear
11:53 AM 90.0 °F 91.3 °F 64.0 °F 42% 29.92 in 10.0 mi SW 17.3 mph 26.5 mph N/A   Clear
12:53 PM 91.9 °F 92.5 °F 62.1 °F 37% 29.91 in 10.0 mi SW 18.4 mph 27.6 mph N/A   Clear
1:53 PM 93.0 °F 93.0 °F 61.0 °F 34% 29.90 in 10.0 mi South 19.6 mph 28.8 mph N/A   Clear
2:53 PM 93.0 °F 93.0 °F 61.0 °F 34% 29.89 in 10.0 mi South 21.9 mph 25.3 mph N/A   Clear
3:53 PM 93.9 °F 93.2 °F 59.0 °F 31% 29.87 in 10.0 mi SSW 16.1 mph 31.1 mph N/A   Clear
4:53 PM 93.0 °F 91.4 °F 55.9 °F 29% 29.87 in 10.0 mi South 18.4 mph 27.6 mph N/A   Clear
5:53 PM 91.0 °F 89.2 °F 55.9 °F 30% 29.87 in 10.0 mi South 21.9 mph 27.6 mph N/A   Clear
6:53 PM 87.1 °F 85.9 °F 57.0 °F 36% 29.87 in 10.0 mi South 9.2 mph - N/A   Clear
7:53 PM 80.1 °F 80.7 °F 59.0 °F 48% 29.88 in 10.0 mi South 6.9 mph - N/A   Clear
8:53 PM 75.9 °F - 60.1 °F 58% 29.90 in 10.0 mi South 8.1 mph - N/A   Clear
9:53 PM 75.0 °F - 60.1 °F 60% 29.91 in 10.0 mi South 9.2 mph - N/A   Clear
10:53 PM 73.9 °F - 61.0 °F 64% 29.92 in 10.0 mi South 9.2 mph - N/A   Clear
11:53 PM 73.0 °F - 61.0 °F 66% 29.93 in 10.0 mi South 8.1 mph - N/A   Clear